Flag for Croatia Weather past 2 weeks in Dubrovnik, Croatia

Now
61 °F

Passing clouds.


Feels Like: 61 °F
Forecast: 53 / 66 °F
Wind: 26 mph from Northeast

Location: Dubrovnik / Cilipi

Current Time: May 28, 2015 at 8:23:25 AM

Latest Report: May 28, 2015 at 8:00 AM


Visibility: N/A

Pressure: 29.92 "Hg

Humidity: 42%

Dew point: 37 °F

Location of DubrovnikLocation

Historic Weather in Dubrovnik — Graph

°F

Dubrovnik temperature yesterday

Maximum temperature yesterday: 73 °F (at 11:30 AM)
Minimum temperature yesterday: 61 °F (at 12:00 AM)
Average temperature yesterday: 67 °F

Past Weeks' High & Low Weather Summary

 TemperatureHumidityPressure
High81 °F (May 17, 11:00 AM)100% (May 22, 6:30 PM)30.15 "Hg (May 22, 6:30 PM)
Low55 °F (May 14, 1:00 AM)28% (May 17, 11:00 AM)29.74 "Hg (May 27, 3:30 AM)
Average67 °F62%29.91 "Hg
* Reported May 13 7:00 AM — May 28 7:00 AM, Dubrovnik, Weather by CustomWeather, © 2015

Note: Actual official high and low records may vary slightly from our data, if they occured in-between our weather recording intervals... More about our weather records

Advertising

Dubrovnik weather history for previous 24 hours

 ConditionsComfort  
Time TempWeatherWind HumidityBarometerVisibility
7:00 AM
Thu, May 28
59 °FPassing clouds.29 mph45%29.92 "HgN/A
6:30 AM59 °FPassing clouds.30 mph45%29.92 "HgN/A
6:00 AM57 °FClear.30 mph48%29.92 "Hg10 mi
5:30 AM57 °FPassing clouds.30 mph48%29.89 "HgN/A
5:00 AM59 °FPassing clouds.30 mph45%29.89 "HgN/A
4:30 AM59 °FPassing clouds.29 mph48%29.89 "HgN/A
4:00 AM59 °FClear.29 mph48%29.89 "Hg10 mi
3:30 AM59 °FPassing clouds.29 mph48%29.89 "HgN/A
3:00 AM59 °FPassing clouds.29 mph48%29.89 "HgN/A
2:30 AM59 °FPassing clouds.28 mph48%29.89 "HgN/A
2:00 AM59 °FPassing clouds.26 mph48%29.89 "HgN/A
1:30 AM61 °FPassing clouds.28 mph45%29.89 "HgN/A
1:00 AM61 °FPassing clouds.28 mph45%29.89 "HgN/A
12:30 AM61 °FPassing clouds.28 mph45%29.89 "HgN/A
12:00 AM61 °FClear.29 mph45%29.89 "Hg10 mi
11:30 PM
Wed, May 27
61 °FPassing clouds.31 mph45%29.89 "HgN/A
11:00 PM61 °FPassing clouds.33 mph45%29.86 "HgN/A
10:30 PM61 °FPassing clouds.33 mph48%29.86 "HgN/A
10:00 PM61 °FPassing clouds.36 mph48%29.86 "HgN/A
9:30 PM63 °FPassing clouds.35 mph45%29.86 "HgN/A
9:00 PM63 °FPassing clouds.35 mph45%29.86 "HgN/A
8:30 PM64 °FPassing clouds.36 mph43%29.83 "HgN/A
8:00 PM64 °FPassing clouds.24 mph43%29.83 "HgN/A
7:30 PM66 °FPassing clouds.24 mph40%29.83 "HgN/A
7:00 PM68 °FPassing clouds.25 mph40%29.80 "HgN/A
6:30 PM70 °FPassing clouds.22 mph38%29.80 "HgN/A
6:00 PM70 °FPassing clouds.21 mph38%29.80 "HgN/A
5:30 PM72 °FPassing clouds.16 mph36%29.80 "HgN/A
5:00 PM73 °FPassing clouds.16 mph36%29.80 "HgN/A
4:30 PM73 °FPassing clouds.18 mph36%29.80 "HgN/A
4:00 PM73 °FPassing clouds.21 mph36%29.80 "HgN/A
3:30 PM73 °FPassing clouds.17 mph38%29.80 "HgN/A
3:00 PM73 °FPassing clouds.20 mph38%29.80 "HgN/A
2:30 PM72 °FPassing clouds.21 mph41%29.80 "HgN/A
2:00 PM72 °FPassing clouds.21 mph38%29.80 "HgN/A
1:30 PM72 °FPassing clouds.18 mph41%29.80 "HgN/A
1:00 PM73 °FPassing clouds.16 mph38%29.80 "HgN/A
12:30 PM73 °FPassing clouds.18 mph41%29.80 "HgN/A
12:00 PM73 °FPassing clouds.17 mph38%29.80 "HgN/A
11:30 AM73 °FPassing clouds.17 mph41%29.80 "HgN/A
11:00 AM72 °FPassing clouds.16 mph44%29.80 "HgN/A
10:30 AM72 °FPassing clouds.15 mph41%29.77 "HgN/A
10:00 AM70 °FPassing clouds.17 mph46%29.77 "HgN/A
9:30 AM68 °FPassing clouds.24 mph49%29.77 "HgN/A
9:00 AM68 °FPassing clouds.25 mph49%29.77 "HgN/A
8:30 AM66 °FPassing clouds.20 mph49%29.77 "HgN/A
8:00 AM66 °FPassing clouds.18 mph49%29.77 "HgN/A
Weather by CustomWeather, © 2015

See weather overviewHow to use our weather pages